FKQ YMEN-YMEN

Flight info

Callsign FKQ
Flight time 0h 0m
Altitude 1000
Route CCTS
Aircraft BL8/L-VGD/A

Departure

Time 2026-04-19 04:37
Airport Melbourne Essendon Airport (YMEN)

Arrival

Time 2026-04-19 04:37
Airport Melbourne Essendon Airport (YMEN)
Time Latitude Longitude Altitude Speed Heading
2026-04-19 04:29 -37.72335 144.89818 276 ft 0 kts 288°
2026-04-19 04:29 -37.72326 144.89813 276 ft 0 kts 352°
2026-04-19 04:30 -37.72309 144.89847 277 ft 7 kts 67°
2026-04-19 04:30 -37.72273 144.89913 278 ft 11 kts 84°
2026-04-19 04:30 -37.72354 144.89938 275 ft 21 kts 167°
2026-04-19 04:31 -37.72517 144.89980 271 ft 24 kts 179°
2026-04-19 04:31 -37.72694 144.89991 262 ft 28 kts 176°
2026-04-19 04:31 -37.72890 144.89996 260 ft 28 kts 180°
2026-04-19 04:31 -37.72936 144.89884 259 ft 17 kts 280°
2026-04-19 04:32 -37.72921 144.89691 264 ft 27 kts 275°
2026-04-19 04:32 -37.72896 144.89455 269 ft 27 kts 282°
2026-04-19 04:32 -37.72951 144.89392 274 ft 15 kts 187°
2026-04-19 04:32 -37.73050 144.89376 282 ft 12 kts 186°
2026-04-19 04:33 -37.73127 144.89295 286 ft 15 kts 217°
2026-04-19 04:33 -37.73138 144.89301 285 ft 0 kts 87°
2026-04-19 04:33 -37.73135 144.89433 279 ft 65 kts 87°
2026-04-19 04:34 -37.73123 144.90217 262 ft 101 kts 117°
2026-04-19 04:34 -37.73094 144.91242 272 ft 136 kts 88°
2026-04-19 04:34 -37.73101 144.91513 1480 ft 9 kts 127°
2026-04-19 04:34 -37.73112 144.90894 357 ft 141 kts 266°
2026-04-19 04:35 -37.73160 144.89599 351 ft 153 kts 269°
2026-04-19 04:35 -37.73236 144.89081 1530 ft 37 kts 289°
2026-04-19 04:35 -37.73139 144.89807 468 ft 122 kts 86°
2026-04-19 04:35 -37.73126 144.91039 257 ft 151 kts 87°
2026-04-19 04:36 -37.73084 144.91030 1136 ft 27 kts 346°
2026-04-19 04:36 -37.72950 144.90076 329 ft 147 kts 353°
2026-04-19 04:36 -37.72764 144.90099 1497 ft 8 kts 229°
2026-04-19 04:36 -37.72919 144.90727 410 ft 143 kts 106°
2026-04-19 04:37 -37.73094 144.91592 1031 ft 93 kts 259°
2026-04-19 04:37 -37.73083 144.90494 827 ft 30 kts 73°
2026-04-19 04:37 -37.73096 144.90139 287 ft 141 kts 264°
2026-04-19 04:37 -37.73120 144.89939 272 ft 126 kts 270°
2026-04-19 04:38 -37.73513 144.89174 359 ft 98 kts 237°
2026-04-19 04:38 -37.73150 144.89094 359 ft 107 kts 75°
2026-04-19 04:38 -37.73108 144.89996 287 ft 107 kts 89°
2026-04-19 04:38 -37.73078 144.90928 271 ft 106 kts 89°
2026-04-19 04:39 -37.73096 144.91789 711 ft 2 kts 255°
2026-04-19 04:39 -37.73074 144.90867 353 ft 157 kts 263°
2026-04-19 04:39 -37.73131 144.89998 1300 ft 70 kts 95°
2026-04-19 04:39 -37.73134 144.90136 368 ft 108 kts 262°
2026-04-19 04:40 -37.73145 144.89338 529 ft 120 kts 266°
2026-04-19 04:40 -37.73426 144.89262 1456 ft 88 kts 56°
2026-04-19 04:40 -37.72999 144.90178 284 ft 139 kts 29°
2026-04-19 04:40 -37.72935 144.90193 297 ft 151 kts 330°
2026-04-19 04:41 -37.73065 144.89976 1100 ft 99 kts 273°
2026-04-19 04:41 -37.73147 144.88738 544 ft 66 kts 274°
2026-04-19 04:41 -37.73177 144.88502 1259 ft 33 kts 116°
2026-04-19 04:41 -37.73134 144.89351 296 ft 82 kts 89°
2026-04-19 04:42 -37.73125 144.89916 260 ft 49 kts 93°
2026-04-19 04:42 -37.73091 144.90145 256 ft 15 kts 352°
2026-04-19 04:42 -37.72960 144.90037 258 ft 20 kts 285°
2026-04-19 04:42 -37.72955 144.90012 258 ft 0 kts 287°
2026-04-19 04:43 -37.72944 144.89886 262 ft 35 kts 277°
2026-04-19 04:44 -37.72908 144.89587 267 ft 31 kts 276°
2026-04-19 04:44 -37.72877 144.89341 268 ft 21 kts 262°
2026-04-19 04:44 -37.72887 144.89325 269 ft 0 kts 82°
2026-04-19 04:45 -37.72886 144.89328 269 ft 2 kts 81°
2026-04-19 04:45 -37.72881 144.89486 268 ft 18 kts 89°
2026-04-19 04:45 -37.72912 144.89708 263 ft 28 kts 104°
2026-04-19 04:46 -37.72942 144.89930 259 ft 23 kts 95°
2026-04-19 04:46 -37.72851 144.89998 260 ft 20 kts 356°
2026-04-19 04:46 -37.72674 144.89984 263 ft 30 kts
2026-04-19 04:46 -37.72459 144.89978 272 ft 33 kts 358°
2026-04-19 04:47 -37.72272 144.89937 277 ft 18 kts 349°
2026-04-19 04:47 -37.72225 144.89931 279 ft 3 kts 355°
2026-04-19 04:47 -37.72217 144.89929 280 ft 8 kts 346°
2026-04-19 04:47 -37.72203 144.89753 279 ft 25 kts 283°
2026-04-19 04:48 -37.72184 144.89715 278 ft 0 kts 90°